This demonstration page uses our WeatherBlox Daily Observations layout. Learn more.

Left ArrowRight Arrow

40.92945, -100.16068

Hourly Observations for November 24, 2019

Temp ( °F °C ) Dew Point ( °F °C ) Humidity (%) Winds ( mph kmh ) Pressure ( in mb ) Visibility ( mi km ) Precip ( " mm )
12:15 am 00:15 Clear 32 0 26 -3.5 78 78 WNW 10 17 30.02 1016 10 16.0934 0 0
12:35 am 00:35 Clear 32 0 26 -3.5 78 78 WNW 8 13 30.02 1016 10 16.0934 0 0
12:55 am 00:55 Clear 31 -0.7 26 -3.5 82 82 NW 8 13 30.02 1017 10 16.0934 0 0
1:15 am 01:15 Clear 31 -0.4 26 -3.3 81 81 WNW 7 11 30.02 1017 10 16.0934 0 0
1:35 am 01:35 Clear 31 -0.6 26 -3.1 83 83 WNW 8 13 30.01 1016 10 16.0934 0 0
1:55 am 01:55 Clear 31 -0.6 26 -3.1 83 83 W 9 15 30.01 1016 10 16.0934 0 0
2:15 am 02:15 Clear 31 -0.4 26 -3.1 82 82 WNW 12 19 30.01 1016 10 16.0934 0 0
2:35 am 02:35 Clear 31 -0.5 26 -3.1 83 83 WNW 10 17 30 1016 10 16.0934 0 0
2:55 am 02:55 Clear 32 0 27 -3 80 80 WNW 10 17 30 1016 10 16.0934 0 0
3:15 am 03:15 Clear 32 -0.1 26 -3.1 80 80 W 10 17 30 1016 10 16.0934 0 0
3:35 am 03:35 Clear 31 -0.3 26 -3.2 81 81 WNW 9 15 30 1016 10 16.0934 0 0
3:55 am 03:55 Clear 30 -0.9 26 -3.3 84 84 WNW 10 17 30.01 1016 10 16.0934 0 0
4:15 am 04:15 Clear 31 -0.7 26 -3.5 82 82 WNW 9 15 29.99 1016 10 16.0934 0 0
4:35 am 04:35 Clear 31 -0.8 26 -3.5 82 82 WNW 9 15 29.99 1016 10 16.0934 0 0
4:55 am 04:55 Clear 30 -1.1 26 -3.6 83 83 WNW 9 15 29.99 1015 10 16.0934 0 0
5:15 am 05:15 Clear 29 -1.5 26 -3.6 86 86 WNW 8 13 29.99 1016 10 16.0934 0 0
5:35 am 05:35 Clear 29 -1.6 25 -3.7 86 86 WNW 9 15 29.98 1015 10 16.0934 0 0
5:55 am 05:55 Clear 29 -1.7 25 -3.7 86 86 WNW 8 13 29.97 1015 10 16.0934 0 0
6:15 am 06:15 Clear 29 -1.9 25 -3.9 86 86 WNW 9 15 29.98 1015 10 16.0934 0 0
6:35 am 06:35 Clear 28 -2.1 25 -4.1 86 86 W 6 9 29.97 1015 10 16.0934 0 0
6:55 am 06:55 Clear 27 -2.7 24 -4.5 88 88 WNW 7 11 29.97 1015 10 16.0934 0 0
7:15 am 07:15 Clear 27 -2.6 24 -4.4 88 88 WNW 7 11 29.97 1015 10 16.0934 0 0
7:35 am 07:35 Clear 28 -2.4 24 -4.3 87 87 WNW 7 11 29.96 1015 10 16.0934 0 0
7:55 am 07:55 Sunny 28 -2.3 24 -4.3 86 86 W 6 9 29.95 1014 10 16.0934 0 0
8:15 am 08:15 Sunny 29 -1.9 25 -3.7 88 88 NW 5 7 29.96 1014 10 16.0934 0 0
8:35 am 08:35 Sunny 31 -0.6 27 -2.9 85 85 W 5 7 29.93 1014 10 16.0934 0 0
8:55 am 08:55 Sunny 32 0.1 26 -3.1 79 79 WNW 6 9 29.93 1013 10 16.0934 0 0
9:15 am 09:15 Sunny 34 1.2 28 -2.2 78 78 WNW 5 7 29.9 1013 10 16.0934 0 0
9:35 am 09:35 Sunny 36 2.1 29 -1.8 76 76 W 6 9 29.9 1012 10 16.0934 0 0
9:55 am 09:55 Sunny 39 4 30 -0.9 71 71 WNW 8 13 29.89 1012 10 16.0934 0 0
10:15 am 10:15 Sunny 40 4.7 31 -0.5 69 69 W 6 9 29.87 1012 10 16.0934 0 0
10:35 am 10:35 Sunny 43 6.1 32 -0.1 65 65 W 3 6 29.85 1011 10 16.0934 0 0
10:55 am 10:55 Sunny 43 6.1 32 0.1 66 66 W 5 7 29.84 1010 10 16.0934 0 0
11:15 am 11:15 Sunny 48 8.9 33 0.4 56 56 W 5 7 29.79 1009 10 16.0934 0 0
11:35 am 11:35 Sunny 50 10.1 32 0 50 50 W 6 9 29.77 1008 10 16.0934 0 0
11:55 am 11:55 Sunny 53 11.6 32 -0.1 45 45 WNW 10 17 29.75 1007 10 16.0934 0 0
12:15 pm 12:15 Sunny 55 13 30 -1 38 38 W 12 19 29.71 1006 10 16.0934 0 0
12:35 pm 12:35 Sunny 58 14.4 29 -1.9 33 33 WSW 13 20 29.69 1005 10 16.0934 0 0
12:55 pm 12:55 Sunny 59 14.9 28 -2.2 31 31 W 14 22 29.67 1005 10 16.0934 0 0
1:15 pm 13:15 Sunny 60 15.4 28 -2.5 29 29 W 16 26 29.66 1004 10 16.0934 0 0
1:35 pm 13:35 Sunny 61 16.2 27 -2.6 28 28 W 17 28 29.64 1004 10 16.0934 0 0
1:55 pm 13:55 Sunny 62 16.9 28 -2.5 27 27 W 16 26 29.63 1003 10 16.0934 0 0
2:15 pm 14:15 Sunny 62 16.7 27 -3 26 26 WNW 16 26 29.62 1003 10 16.0934 0 0
2:35 pm 14:35 Sunny 61 16 26 -3.2 27 27 NW 17 28 29.63 1003 10 16.0934 0 0
2:55 pm 14:55 Sunny 60 15.8 27 -2.9 28 28 WNW 12 19 29.63 1003 10 16.0934 0 0
3:15 pm 15:15 Sunny 60 15.6 28 -2.2 30 30 W 9 15 29.62 1003 10 16.0934 0 0
3:35 pm 15:35 Sunny 60 15.5 29 -1.6 31 31 W 7 11 29.61 1003 10 16.0934 0 0
3:55 pm 15:55 Sunny 60 15.8 29 -1.7 30 30 W 7 11 29.61 1003 10 16.0934 0 0
4:15 pm 16:15 Sunny 58 14.2 28 -2.1 33 33 W 7 11 29.62 1003 10 16.0934 0 0
4:35 pm 16:35 Sunny 54 12.3 29 -1.8 38 38 W 8 13 29.65 1004 10 16.0934 0 0
4:55 pm 16:55 Sunny 53 11.8 29 -1.5 40 40 WSW 6 9 29.64 1004 10 16.0934 0 0
5:15 pm 17:15 Sunny 49 9.6 32 -0.2 51 51 SW 5 7 29.65 1004 10 16.0934 0 0
5:35 pm 17:35 Clear 49 9.7 28 -2.2 44 44 WSW 3 6 29.64 1004 10 16.0934 0 0
5:55 pm 17:55 Clear 48 8.9 27 -2.7 44 44 WSW 6 9 29.67 1005 10 16.0934 0 0
6:15 pm 18:15 Clear 44 6.4 27 -2.7 53 53 WSW 7 11 29.69 1006 10 16.0934 0 0
6:35 pm 18:35 Clear 42 5.7 28 -2.4 56 56 W 6 9 29.68 1005 10 16.0934 0 0
6:55 pm 18:55 Clear 42 5.4 26 -3.1 55 55 WSW 5 7 29.68 1005 10 16.0934 0 0
7:15 pm 19:15 Clear 40 4.6 26 -3.5 56 56 WSW 5 7 29.69 1005 10 16.0934 0 0
7:35 pm 19:35 Clear 41 4.8 26 -3.3 56 56 WSW 3 6 29.69 1005 10 16.0934 0 0
7:55 pm 19:55 Clear 37 2.7 28 -2 71 71 WNW 3 6 29.71 1006 10 16.0934 0 0
8:15 pm 20:15 Clear 37 2.6 29 -1.6 74 74 N 5 7 29.7 1006 10 16.0934 0 0
8:35 pm 20:35 Clear 37 2.8 29 -1.4 74 74 N 5 7 29.71 1006 10 16.0934 0 0
8:55 pm 20:55 Clear 37 2.8 29 -1.8 72 72 Calm 29.71 1006 10 16.0934 0 0
9:15 pm 21:15 Clear 37 2.5 29 -1.4 76 76 WNW 5 7 29.71 1006 10 16.0934 0 0
9:35 pm 21:35 Clear 37 3 30 -1 75 75 Calm 29.71 1006 10 16.0934 0 0
9:55 pm 21:55 Clear 39 3.7 29 -1.7 68 68 Calm 29.7 1006 10 16.0934 0 0
10:15 pm 22:15 Clear 37 3 29 -1.4 73 73 NW 6 9 29.71 1006 10 16.0934 0 0
10:35 pm 22:35 Clear 35 1.7 29 -1.5 80 80 WNW 3 6 29.72 1006 10 16.0934 0 0
10:55 pm 22:55 Clear 34 1.3 30 -1.1 84 84 WNW 3 6 29.72 1007 10 16.0934 0 0
11:15 pm 23:15 Clear 36 2.1 30 -1.2 79 79 WNW 6 9 29.72 1006 10 16.0934 0 0
11:35 pm 23:35 Clear 35 1.7 30 -1.2 81 81 Calm 29.72 1006 10 16.0934 0 0
11:55 pm 23:55 Clear 37 2.7 29 -1.5 74 74 W 6 9 29.72 1006 10 16.0934 0 0

Powered by AerisWeather